Simultaneous Nadir Overpasses (SNOs) Predictions

Prediction of SNOs between LANDSAT-8 and METOP-A Satellite Orbit:

Table of predicted SNOs for the next 14.0 days since TLE Epoch: 6/6/2020
Index Date (LANDSAT-8) Time (LANDSAT-8) Lat,Lon (LANDSAT-8) SZA (LANDSAT-8 ) Date (METOP-A) Time (METOP-A) Lat,Lon (METOP-A) SZA (METOP-A ) Distance(km) Time Diff (sec)
1 06/07/2020 22:33:01 81.48,-111.56 61.45 06/07/2020 22:32:32 81.47,-111.76 61.41 3.34 29
2 06/07/2020 23:22:28 -81.48, 55.98 118.57 06/07/2020 23:23:12 -81.47, 55.89 118.56 1.68 44
3 06/10/2020 18:07:19 81.47, -45.45 61.17 06/10/2020 18:06:53 81.47, -45.46 61.16 0.86 26
4 06/10/2020 18:56:46 -81.46, 122.12 118.85 06/10/2020 18:57:33 -81.47, 122.21 118.81 1.63 47
5 06/13/2020 13:41:37 81.48, 21.21 61.02 06/13/2020 13:41:14 81.47, 21.23 61.01 0.87 23
6 06/13/2020 14:31:04 -81.47,-171.20 118.99 06/13/2020 14:31:54 -81.46,-171.10 118.97 2.07 50
7 06/16/2020 09:15:56 81.48, 87.64 60.89 06/16/2020 09:15:36 81.47, 87.49 60.86 2.46 20
8 06/16/2020 10:05:23 -81.48,-104.75 119.12 06/16/2020 10:06:16 -81.46,-104.82 119.11 1.70 53
9 06/19/2020 04:50:15 81.47, 153.82 60.78 06/19/2020 04:49:57 81.47, 153.74 60.77 1.52 18




NCC Satellite Simultaneous Nadir Overpasses (SNOs) Prediction Service
